Total_Precipitation_Accumulation
0.36 0.48 0.50 0.40 0.37 0.36 0.33 0.34 0.42 0.37 0.40 0.48 0.53 0.56 0.51 0.52 0.42 0.33 0.14 0.10 0.10 0.08 0.07 0.09 0.11 0.14 0.18 0.20 0.23 0.30 0.40 0.46 0.56 0.70 0.85 1.03 1.20 1.33
0.36 0.42 0.53 0.57 0.50 0.47 0.46 0.47 0.55 0.51 0.49 0.54 0.60 0.60 0.48 0.31 0.21 0.21 0.13 0.10 0.08 0.06 0.05 0.05 0.06 0.07 0.08 0.10 0.11 0.13 0.16 0.21 0.27 0.35 0.45 0.58 0.75 1.01
0.49 0.50 0.49 0.60 0.68 0.64 0.62 0.61 0.62 0.63 0.58 0.54 0.63 0.60 0.46 0.27 0.17 0.14 0.09 0.06 0.05 0.05 0.04 0.03 0.04 0.05 0.05 0.06 0.08 0.08 0.08 0.09 0.11 0.15 0.20 0.26 0.33 0.42
0.53 0.68 0.70 0.65 0.63 0.62 0.62 0.63 0.66 0.74 0.71 0.60 0.60 0.59 0.50 0.37 0.26 0.17 0.10 0.06 0.04 0.08 0.08 0.06 0.05 0.05 0.05 0.04 0.05 0.06 0.07 0.07 0.07 0.06 0.07 0.09 0.13 0.18
0.36 0.59 0.77 0.90 0.82 0.64 0.55 0.54 0.61 0.74 0.79 0.71 0.68 0.72 0.66 0.49 0.29 0.17 0.12 0.08 0.05 0.06 0.07 0.07 0.06 0.05 0.04 0.04 0.03 0.03 0.03 0.03 0.03 0.03 0.04 0.04 0.05 0.07
0.23 0.33 0.46 0.66 0.82 0.87 0.74 0.61 0.61 0.68 0.74 0.75 0.83 0.98 0.91 0.68 0.37 0.21 0.15 0.10 0.06 0.04 0.04 0.04 0.04 0.03 0.03 0.02 0.02 0.02 0.02 0.02 0.02 0.03 0.03 0.03 0.03 0.04
0.18 0.22 0.25 0.33 0.46 0.62 0.74 0.79 0.75 0.69 0.74 0.79 0.99 1.33 1.26 0.92 0.48 0.25 0.18 0.13 0.08 0.05 0.03 0.03 0.02 0.01 0.02 0.02 0.02 0.02 0.02 0.02 0.02 0.02 0.02 0.03 0.03 0.03
0.24 0.22 0.20 0.20 0.24 0.34 0.46 0.60 0.74 0.77 0.77 0.82 0.99 1.25 1.28 1.05 0.72 0.41 0.21 0.13 0.12 0.09 0.05 0.04 0.02 0.02 0.01 0.01 0.02 0.02 0.01 0.01 0.01 0.01 0.01 0.01 0.02 0.02
0.30 0.31 0.21 0.13 0.17 0.21 0.28 0.36 0.45 0.57 0.70 0.78 0.91 1.08 1.27 1.22 0.91 0.50 0.28 0.19 0.12 0.08 0.06 0.05 0.03 0.01 0.01 0.02 0.03 0.02 0.01 0.01 0.00 0.00 0.00 0.00 0.00 0.00
0.30 0.31 0.28 0.21 0.20 0.21 0.24 0.25 0.28 0.33 0.41 0.54 0.68 0.89 1.09 1.23 1.15 0.81 0.53 0.34 0.20 0.13 0.05 0.04 0.03 0.02 0.01 0.01 0.03 0.03 0.01 0.01 0.00 0.00 0.00 0.00 0.00 0.00
0.30 0.32 0.33 0.28 0.21 0.18 0.23 0.23 0.24 0.26 0.30 0.37 0.49 0.67 0.86 1.04 1.17 1.06 0.69 0.36 0.26 0.20 0.07 0.03 0.02 0.02 0.03 0.02 0.02 0.03 0.02 0.01 0.00 0.00 0.00 0.00 0.00 0.00
0.42 0.44 0.41 0.37 0.30 0.19 0.20 0.22 0.21 0.21 0.24 0.26 0.31 0.43 0.58 0.74 0.93 0.91 0.72 0.40 0.22 0.17 0.08 0.03 0.02 0.03 0.05 0.02 0.01 0.01 0.01 0.01 0.00 0.00 0.00 0.00 0.00 0.00
0.50 0.59 0.54 0.44 0.32 0.23 0.20 0.22 0.19 0.22 0.25 0.25 0.27 0.33 0.48 0.63 0.73 0.82 0.76 0.51 0.25 0.11 0.05 0.03 0.02 0.03 0.03 0.01 0.01 0.00 0.00 0.00 0.00 0.00 0.00 0.00 0.00 0.00
0.57 0.72 0.75 0.63 0.46 0.32 0.25 0.22 0.19 0.19 0.24 0.27 0.29 0.31 0.37 0.47 0.59 0.72 0.77 0.64 0.38 0.18 0.07 0.03 0.02 0.01 0.02 0.02 0.02 0.01 0.00 0.00 0.00 0.00 0.00 0.00 0.00 0.00
0.54 0.77 0.86 0.75 0.62 0.48 0.37 0.30 0.23 0.19 0.21 0.23 0.22 0.24 0.29 0.36 0.48 0.64 0.74 0.68 0.52 0.31 0.15 0.06 0.02 0.01 0.01 0.01 0.01 0.01 0.00 0.00 0.00 0.00 0.00 0.00 0.00 0.00
0.39 0.53 0.69 0.75 0.69 0.62 0.51 0.38 0.29 0.24 0.22 0.22 0.22 0.24 0.31 0.39 0.45 0.49 0.56 0.56 0.49 0.36 0.20 0.10 0.04 0.02 0.01 0.00 0.00 0.00 0.00 0.00 0.00 0.00 0.00 0.00 0.00 0.00
0.37 0.49 0.63 0.72 0.73 0.70 0.65 0.53 0.40 0.34 0.29 0.27 0.29 0.29 0.33 0.39 0.40 0.39 0.42 0.40 0.32 0.26 0.18 0.11 0.05 0.03 0.01 0.00 0.00 0.00 0.00 0.00 0.00 0.00 0.00 0.00 0.00 0.00
0.28 0.45 0.58 0.70 0.77 0.78 0.76 0.67 0.54 0.43 0.35 0.33 0.34 0.32 0.32 0.37 0.36 0.32 0.34 0.35 0.29 0.22 0.16 0.10 0.06 0.03 0.01 0.00 0.00 0.00 0.00 0.00 0.00 0.00 0.00 0.00 0.00 0.00
0.17 0.33 0.44 0.55 0.68 0.78 0.78 0.70 0.59 0.50 0.43 0.41 0.43 0.40 0.34 0.34 0.33 0.28 0.25 0.28 0.29 0.22 0.17 0.11 0.07 0.04 0.02 0.01 0.00 0.00 0.00 0.00 0.00 0.00 0.00 0.00 0.00 0.00
0.13 0.23 0.32 0.43 0.56 0.69 0.73 0.69 0.64 0.59 0.54 0.49 0.50 0.49 0.43 0.34 0.32 0.28 0.22 0.18 0.21 0.21 0.16 0.12 0.07 0.04 0.02 0.01 0.00 0.00 0.00 0.00 0.00 0.00 0.00 0.00 0.00 0.00
0.13 0.18 0.24 0.31 0.44 0.60 0.70 0.70 0.68 0.62 0.57 0.55 0.54 0.52 0.49 0.40 0.31 0.27 0.24 0.20 0.15 0.15 0.13 0.10 0.07 0.06 0.03 0.02 0.01 0.00 0.00 0.00 0.00 0.00 0.00 0.00 0.00 0.00
0.19 0.20 0.21 0.25 0.37 0.52 0.62 0.67 0.69 0.64 0.58 0.56 0.57 0.53 0.48 0.42 0.33 0.27 0.24 0.21 0.14 0.11 0.11 0.11 0.09 0.08 0.05 0.03 0.01 0.00 0.00 0.00 0.00 0.00 0.00 0.00 0.00 0.00
0.20 0.18 0.16 0.19 0.30 0.43 0.51 0.57 0.65 0.61 0.53 0.50 0.54 0.55 0.46 0.41 0.35 0.28 0.23 0.18 0.14 0.12 0.12 0.12 0.12 0.09 0.06 0.03 0.02 0.00 0.00 0.00 0.00 0.00 0.00 0.00 0.00 0.00